Dewpoint
74 74 74 74 74 73 72 72 71 70 69 70 70 69 69 69 68 68 70 69 69 69 69 69 70 69 67 67 66 67 68 66 68 68 68 68 68 68 67 68 67 66 66 65 66 68 68 67 67 67 68 68 66 66 65 66 66 64 64 63 62 62 62 60 58 58 60 61 59 59 60 61 61 61 61 62 62 63 63 63 64 63 63 62 61
74 74 74 73 73 73 72 70 70 69 68 68 69 69 68 68 68 69 68 69 69 68 70 69 69 69 67 68 69 68 68 69 66 68 68 68 67 67 67 68 68 67 66 66 66 67 69 68 67 67 68 68 67 66 66 65 65 64 63 63 62 62 63 61 59 58 59 60 60 60 60 60 60 62 61 61 62 62 62 63 63 63 63 62 60
73 74 74 73 73 72 71 69 69 68 67 67 65 65 66 68 68 67 66 66 68 68 69 68 69 69 68 68 69 68 69 68 68 68 68 68 66 65 65 66 66 65 65 65 65 67 68 68 65 65 67 68 68 67 66 66 65 65 64 64 64 63 63 63 61 58 58 58 60 59 59 59 60 61 62 62 63 63 63 63 63 63 63 63 61
71 73 73 73 72 72 71 68 67 65 64 65 63 64 63 66 67 67 67 65 66 68 68 68 69 69 68 68 68 68 68 68 69 69 68 68 67 66 67 68 67 66 65 65 64 66 65 65 64 64 66 67 67 66 66 66 66 65 65 65 65 65 64 64 63 61 59 57 59 60 60 60 59 61 61 62 62 63 63 63 63 63 63 63 62
70 71 72 71 71 71 69 67 67 66 63 62 62 62 63 63 65 65 66 65 66 67 68 68 68 68 67 68 68 68 68 69 69 68 68 68 68 67 67 68 68 67 67 67 66 66 66 65 64 66 67 66 66 66 66 66 66 65 65 65 65 64 64 63 63 63 61 59 59 60 60 60 60 60 60 59 60 61 61 61 62 62 62 62 61
70 70 70 70 71 70 68 65 67 65 63 62 62 62 62 63 64 64 65 65 66 65 66 66 67 68 68 68 68 69 69 69 69 68 66 67 68 67 67 68 67 67 67 67 67 67 66 66 66 67 67 66 65 65 66 66 66 66 65 65 65 65 65 64 63 63 62 60 60 59 60 59 58 59 59 59 58 57 58 59 61 61 61 60 60
72 70 70 69 70 68 65 67 67 65 64 63 64 64 63 62 63 63 63 63 63 63 64 66 67 67 68 69 68 69 69 69 68 68 68 69 69 68 67 67 67 67 67 66 65 66 66 66 67 67 67 66 65 65 65 66 66 66 66 66 65 65 64 62 62 62 62 61 60 59 59 59 59 58 58 59 59 59 58 58 58 58 58 59 58
72 71 71 70 70 66 66 69 67 67 65 66 66 64 64 64 64 65 64 63 62 62 63 65 66 66 68 68 68 68 68 68 68 68 69 68 68 68 67 67 66 66 67 67 66 65 65 65 63 65 67 66 66 66 67 66 66 66 66 65 64 64 62 61 61 61 61 60 59 58 58 58 58 59 58 59 59 58 59 58 56 57 57 58 59
72 72 72 71 70 67 69 69 69 68 68 68 66 65 66 66 66 66 65 64 63 63 64 65 65 66 67 67 67 67 67 67 68 68 68 68 68 67 67 67 67 66 66 66 66 66 66 66 65 64 66 67 67 66 65 65 65 65 65 65 65 65 64 62 60 61 60 59 58 58 58 58 58 57 56 56 56 57 58 58 57 57 57 57 57
73 72 71 71 70 69 68 68 68 68 69 67 66 66 64 65 65 65 65 65 64 64 64 64 65 65 66 66 67 67 67 67 65 62 63 67 68 68 67 67 67 66 67 66 66 66 65 65 65 66 66 65 65 64 62 61 61 63 64 65 65 66 65 63 62 61 61 60 58 57 56 56 56 57 56 57 57 58 57 57 56 57 57 57 58
73 72 72 71 71 70 69 67 67 67 68 68 66 66 66 65 64 64 64 64 64 65 65 65 64 64 64 65 66 66 67 66 62 61 61 62 66 67 67 67 67 67 66 66 66 65 66 66 66 66 66 65 65 64 63 62 61 61 60 60 61 64 64 63 62 62 61 61 59 58 57 57 57 58 57 56 57 57 58 57 57 57 56 55 54
71 73 73 72 71 69 68 68 68 68 69 67 66 65 65 64 64 64 64 64 65 66 66 65 66 65 65 65 65 65 65 62 60 60 61 61 62 66 66 66 66 66 66 66 66 65 65 64 64 65 65 64 64 65 65 63 61 61 60 60 59 59 59 62 62 60 61 60 60 60 58 58 58 59 57 56 58 58 58 59 59 58 56 56 55
73 73 73 73 71 69 69 68 68 68 66 66 65 65 64 64 64 64 65 67 67 66 66 66 66 66 66 65 64 64 64 62 60 60 60 60 60 62 65 66 66 66 66 66 66 66 63 63 63 62 64 64 62 63 66 66 65 62 61 61 60 59 59 58 58 61 62 61 61 60 60 60 59 59 59 60 61 60 59 58 59 57 57 56 55
73 73 73 72 71 69 69 68 67 66 65 66 66 66 65 64 65 66 67 68 67 67 67 67 67 66 65 64 65 65 65 61 59 58 58 58 59 61 64 65 66 66 66 66 66 64 64 63 63 62 62 64 66 65 65 65 64 64 63 63 62 62 62 59 58 58 59 61 60 59 59 60 59 60 61 61 59 59 58 58 58 57 56 56 57
73 73 73 72 71 69 69 68 67 67 67 66 67 66 66 66 67 68 68 67 67 67 65 65 65 65 65 65 65 66 64 60 58 57 57 57 58 60 64 65 66 67 67 66 65 64 64 63 64 63 63 64 65 64 63 62 63 62 62 61 60 61 61 59 59 59 60 59 59 59 60 60 60 60 60 59 58 58 58 57 57 57 56 57 56
72 72 72 72 70 69 68 68 68 67 67 66 66 66 66 66 66 66 67 67 68 68 67 65 65 64 65 66 66 65 64 60 58 57 57 56 58 63 65 66 66 66 65 65 64 64 63 63 63 63 64 64 59 57 59 60 60 61 61 60 60 59 58 60 59 59 59 59 58 57 56 56 55 58 57 55 57 57 57 57 57 57 55 54 53
72 72 71 71 71 69 68 68 68 67 67 66 66 66 66 67 66 65 64 64 63 64 64 65 66 66 66 66 65 65 65 62 58 56 56 56 57 64 65 65 65 65 64 64 64 63 63 63 63 63 64 63 58 55 56 57 60 60 59 58 58 57 57 58 58 57 57 55 54 55 55 54 54 53 53 53 56 57 57 56 55 52 53 53 52
72 72 71 72 71 70 69 69 68 67 67 66 66 66 66 66 65 64 63 61 61 61 63 65 67 67 66 66 65 65 65 63 57 54 54 55 58 64 65 65 65 65 64 64 63 63 63 63 63 63 62 62 53 54 54 57 59 59 57 57 57 56 56 56 55 57 56 55 54 54 54 54 54 54 53 53 53 54 57 54 53 53 53 53 52
72 71 71 71 71 70 70 69 68 67 67 66 66 66 65 64 63 62 61 61 62 65 65 65 66 66 65 65 64 64 64 61 55 55 54 54 58 64 64 64 64 64 63 63 63 62 64 62 61 61 61 58 52 53 53 56 59 59 58 57 57 56 56 57 56 55 55 54 55 56 56 56 59 58 57 54 54 56 56 55 54 54 53 53 52
71 71 71 71 71 71 70 69 68 67 67 65 65 64 63 61 61 62 64 65 66 68 67 66 65 66 66 66 65 65 65 66 64 55 54 53 55 65 65 63 63 64 63 62 62 62 62 62 59 55 54 53 51 50 50 51 57 58 58 57 56 56 56 55 55 54 55 55 55 56 56 56 56 55 55 55 55 57 57 56 55 54 53 52 52
71 71 71 70 70 70 69 68 67 67 65 64 63 62 62 63 64 63 63 65 66 67 66 67 66 67 66 65 64 64 64 64 62 55 53 53 54 57 63 63 63 64 64 62 60 60 60 60 59 53 51 51 50 48 47 49 51 57 58 57 56 56 52 53 54 54 55 55 55 54 54 54 53 54 54 53 52 52 53 54 53 53 53 52 52
70 70 70 70 70 69 68 68 67 66 65 64 62 61 63 62 62 63 64 65 64 64 67 67 66 65 64 64 64 64 63 62 63 58 53 51 51 53 61 62 63 63 62 61 60 59 59 59 59 55 51 50 49 47 46 49 51 56 58 47 47 48 54 53 54 54 53 53 53 53 52 51 50 52 52 52 50 52 51 51 50 51 51 51 54
70 70 70 69 69 67 67 66 65 64 64 64 62 62 61 60 62 64 64 63 64 65 67 66 65 65 65 64 63 63 64 64 59 61 51 49 48 50 53 58 55 63 60 59 60 59 59 59 59 51 49 46 46 46 46 48 50 53 46 46 46 49 52 53 53 53 52 52 52 52 52 50 51 51 50 50 49 52 51 51 50 51 53 53 55
70 69 68 68 67 66 66 65 65 64 64 63 63 62 62 62 63 65 64 66 66 67 66 66 65 64 63 61 61 61 62 64 58 56 54 49 48 49 51 52 54 59 59 58 58 57 58 59 57 47 46 43 44 47 49 50 54 44 45 47 49 51 52 52 51 51 52 51 51 51 50 50 51 49 49 50 49 51 51 51 52 51 52 53 54
69 68 67 67 66 66 65 65 65 64 63 62 62 62 62 63 62 63 66 67 67 66 65 65 63 62 62 60 61 61 61 62 61 57 54 50 48 47 48 49 50 52 58 58 58 58 50 45 44 45 46 44 45 48 49 48 47 48 48 49 50 51 52 52 51 50 50 49 49 49 49 50 49 50 52 52 52 52 52 51 51 52 52 54 54
68 67 67 66 66 65 65 64 65 63 62 62 62 61 60 60 60 62 65 65 65 65 65 62 63 62 61 62 63 62 61 60 60 59 54 52 49 48 48 49 50 51 55 56 51 50 49 48 48 47 47 50 54 55 55 55 50 49 48 48 50 50 49 49 50 49 49 48 47 47 47 48 48 49 51 52 51 49 49 50 50 50 51 52 53
66 66 66 65 66 65 64 63 62 62 63 61 60 60 59 61 62 65 66 66 66 66 63 62 61 60 62 62 64 63 62 61 60 59 59 57 56 54 54 53 52 52 55 56 53 54 55 54 55 53 53 53 51 48 50 49 52 50 48 47 48 48 49 49 48 48 48 47 47 46 47 47 48 50 49 48 49 49 50 50 48 48 50 51 52
65 65 64 65 64 64 64 64 63 62 63 62 62 64 66 65 66 66 66 66 66 64 62 62 61 61 61 61 62 62 61 60 60 59 58 57 57 56 56 54 53 56 54 54 55 54 53 52 53 55 54 53 52 52 50 51 50 48 46 45 45 46 44 44 45 48 49 48 47 48 48 49 47 46 46 46 46 47 50 50 49 48 50 51 51
65 64 64 63 63 64 62 63 64 64 65 65 64 62 64 65 66 66 60 59 62 61 62 61 61 60 60 61 61 60 61 61 60 55 59 53 55 54 56 54 54 55 51 49 54 54 55 53 53 51 52 52 50 50 48 47 47 46 46 45 44 44 45 44 44 45 47 47 47 47 45 45 44 44 44 44 46 46 49 50 50 49 50 50 51
65 64 63 63 63 64 64 64 64 64 64 63 60 54 46 42 46 57 57 50 47 44 43 60 59 58 58 60 60 59 59 60 48 46 44 44 44 44 43 44 46 49 46 45 52 52 51 51 50 50 49 48 47 47 46 46 46 45 45 45 43 42 41 41 41 42 44 46 46 45 45 44 43 43 43 43 44 45 47 48 49 49 49 49 50
64 64 64 63 63 64 64 64 64 64 63 61 59 55 53 51 40 40 44 45 43 39 42 44 48 54 59 56 52 46 47 44 43 41 40 40 40 39 40 40 40 41 42 50 52 51 50 49 48 47 48 46 45 45 46 45 45 43 42 41 42 43 41 38 39 40 43 44 45 45 44 43 43 43 42 42 43 44 45 47 48 48 48 49 50
65 64 63 63 64 64 62 63 62 61 62 61 60 58 56 56 54 42 39 41 41 39 38 41 46 48 50 54 51 52 44 41 41 40 40 40 39 39 38 38 38 39 40 41 53 51 49 48 47 46 46 45 45 45 43 42 43 43 41 39 39 39 37 35 38 41 43 44 43 42 42 42 42 42 42 42 43 44 44 45 46 46 47 48 50
63 63 64 64 63 63 62 62 61 60 60 60 59 59 58 57 57 55 50 40 39 39 39 39 40 42 43 45 46 47 45 42 40 40 40 39 39 38 38 38 38 38 41 50 51 48 48 48 44 47 46 45 46 44 45 40 40 39 39 40 38 36 35 38 43 45 44 43 41 40 40 41 41 41 41 40 41 41 43 44 45 46 46 46 48
64 63 62 62 63 62 61 61 60 60 59 59 59 59 59 59 58 57 55 54 54 48 42 40 39 40 40 40 41 40 40 39 40 39 39 39 39 38 39 42 36 37 41 52 48 47 47 47 46 46 46 45 44 43 43 43 41 40 41 39 37 35 35 42 44 42 41 40 39 38 39 39 39 39 38 39 40 42 42 42 43 44 45 45 46
62 61 61 61 61 61 60 60 59 59 58 59 58 58 59 60 59 57 55 55 56 55 53 53 46 39 48 43 39 39 39 39 39 39 39 39 38 38 41 50 50 48 48 49 50 46 46 46 47 46 46 45 44 43 42 41 41 39 38 37 34 30 34 39 40 41 41 38 37 37 38 40 39 39 38 38 40 40 41 41 42 43 44 45 46
59 59 59 60 60 60 59 61 60 60 60 59 60 60 59 58 57 56 56 57 56 55 55 55 51 43 41 39 39 38 38 39 39 39 38 38 38 40 50 50 49 49 48 48 47 47 47 47 48 46 45 45 45 42 40 39 39 37 35 32 28 30 37 39 41 42 42 40 37 38 39 38 37 38 37 37 39 39 39 41 41 42 44 44 45
57 59 60 60 59 60 61 61 61 61 59 59 59 59 58 58 57 57 57 57 58 56 54 52 51 49 47 45 41 38 38 39 39 38 38 38 37 46 49 49 48 49 48 48 47 48 47 46 46 46 45 43 41 39 39 39 39 38 34 33 35 38 39 40 40 42 41 37 38 37 39 38 38 38 37 38 37 38 38 40 41 42 43 43 45
58 58 60 62 62 62 63 62 60 59 59 58 60 59 57 59 58 57 56 57 56 55 53 53 51 50 50 51 46 47 46 40 40 39 38 38 43 48 49 49 49 49 48 48 48 47 46 46 46 45 43 41 40 39 38 39 34 28 26 34 40 41 37 40 43 44 43 39 36 36 36 37 37 37 37 38 38 37 38 39 40 41 42 43 43
60 59 59 60 60 60 60 60 59 58 58 59 59 59 58 57 58 56 56 56 56 55 54 53 52 52 52 50 49 49 47 48 47 47 47 47 48 49 48 48 49 48 48 48 47 47 46 44 44 43 41 41 39 39 38 34 29 28 31 35 37 38 39 38 39 41 38 36 36 36 35 35 37 36 38 38 36 37 38 39 40 41 42 42 43
61 60 59 59 59 59 61 61 60 60 59 58 57 58 59 58 57 56 55 55 56 55 54 53 54 53 52 51 50 49 47 47 48 49 49 49 49 49 49 49 48 48 48 47 46 45 45 43 43 41 42 41 39 37 35 33 28 26 33 37 36 38 38 38 37 37 37 37 36 36 35 36 37 37 38 36 36 37 40 39 40 41 42 42 42
61 62 60 58 59 60 61 59 59 59 58 58 57 57 57 58 58 57 55 55 56 55 55 55 54 55 55 52 47 46 49 49 50 50 50 50 50 50 49 49 48 48 46 46 45 44 43 43 42 41 39 39 38 36 34 29 25 25 30 34 35 36 36 38 38 38 37 37 35 35 36 35 35 36 35 36 39 38 38 38 39 39 41 42 42
61 61 60 60 60 61 60 60 60 60 60 59 59 57 58 58 59 59 58 57 56 55 55 55 54 53 49 46 45 44 49 50 51 50 51 51 51 50 49 49 48 48 47 45 45 45 44 44 42 40 38 38 36 35 31 26 22 23 28 33 35 35 35 35 36 38 37 35 35 35 36 36 36 37 37 39 37 36 37 37 38 39 40 43 43
62 61 61 62 62 61 60 59 59 59 59 59 59 59 60 60 58 57 56 56 56 55 54 53 53 53 51 46 46 44 49 50 51 51 50 50 49 49 48 48 48 47 46 45 44 44 43 42 40 38 38 37 37 34 27 21 23 25 28 33 34 36 35 35 35 35 35 34 33 35 37 35 34 34 36 38 37 37 37 37 38 38 41 42 44
60 60 61 61 61 61 60 59 59 60 60 59 59 59 58 58 57 56 55 56 55 54 53 53 53 52 52 47 47 47 48 50 52 51 50 48 48 47 47 48 47 46 45 44 43 43 42 41 39 38 39 36 34 32 25 22 21 26 29 33 34 36 35 35 35 35 34 34 34 34 34 34 35 35 36 36 36 37 36 37 38 38 40 42 42
60 60 60 60 60 59 59 60 60 60 59 58 58 57 57 55 55 55 53 53 55 55 54 53 53 52 52 50 49 49 50 50 51 51 49 47 47 47 46 46 46 46 43 43 44 45 42 40 39 39 37 35 32 30 28 26 25 25 24 28 33 32 33 35 36 35 35 36 33 33 33 34 33 33 34 35 36 36 35 36 37 40 40 41 41
60 61 60 59 59 59 59 59 59 57 55 54 54 54 54 53 53 53 53 53 54 53 52 52 53 53 52 52 51 51 51 51 50 50 49 47 46 46 45 44 44 44 42 42 43 43 41 40 38 37 37 35 33 31 28 26 25 26 26 27 28 32 32 34 35 36 36 36 34 34 34 33 33 34 36 36 35 34 36 37 38 38 39 39 40
59 59 59 59 58 57 57 57 56 55 54 53 53 53 53 53 54 53 54 53 52 53 52 52 52 52 53 52 52 51 51 50 50 49 49 48 47 46 44 44 43 43 42 43 44 41 42 40 38 38 36 35 34 35 29 25 24 23 28 25 26 28 31 33 35 37 36 36 37 35 34 35 33 33 34 36 35 35 37 35 37 38 38 38 38
58 57 56 56 56 55 55 55 54 55 54 53 53 52 52 52 52 52 52 52 52 52 51 51 51 51 52 51 51 51 51 50 50 50 48 46 46 45 45 45 44 42 42 42 42 41 41 39 39 38 37 36 35 33 33 29 27 24 25 24 24 26 32 33 36 39 38 38 37 37 36 34 32 33 34 36 36 36 36 34 36 35 37 36 36
55 54 54 54 53 53 53 52 52 51 50 50 51 52 51 51 51 51 51 51 51 51 51 50 51 51 51 51 50 50 51 51 50 49 47 46 45 45 45 45 44 43 42 42 41 41 41 40 39 38 36 37 36 35 34 31 28 27 27 27 25 30 33 32 31 35 37 38 36 36 36 35 33 34 35 36 36 36 34 36 36 36 35 36 35
53 53 53 53 53 52 53 52 52 51 51 51 50 50 51 52 51 51 51 51 51 51 51 51 51 50 50 50 50 50 50 50 49 48 47 46 45 45 44 45 45 44 43 43 42 42 41 41 40 38 37 36 36 36 33 32 32 30 29 30 33 31 33 32 33 35 36 37 36 34 34 34 34 33 34 35 35 35 33 34 35 36 35 35 35
51 50 50 50 50 50 50 50 50 50 50 49 49 48 48 48 47 47 47 48 49 50 51 51 50 51 50 50 50 50 49 50 49 48 47 46 46 45 44 44 45 45 44 44 43 42 41 40 38 38 37 36 35 35 33 32 32 32 29 28 28 31 32 33 35 32 33 35 37 35 34 33 34 33 33 34 34 33 34 35 34 35 35 33 33